Hourly Data Report for May 07, 2004

SHERBROOKE A
QUEBEC

45°26'00.000" N
71°41'00.000" W
241.40 m
7028124
71610
YSC

Download Data

Hourly Data (May 2004)
Hourly Data Report for May 7, 2004
TIME
LST
Temp Definition
°C
Dew Point Definition
°C
Rel Hum Definition
%
Precip. Amount Definition
mm

Wind Dir Definition
10's deg

Wind Spd Definition
km/h
Visibility Definition
km
Stn Press Definition
kPa
Hmdx Definition


Wind Chill Definition


Weather Definition


00:00 10.9 8.2 83   32 4 15.0 97.99      
01:00 10.0 6.9 81   21 4 15.0 97.97      
02:00 11.0 6.7 75   24 7 15.0 97.96      
03:00 10.1 6.9 80   22 9 15.0 97.99      
04:00 12.3 8.6 78   27 20 15.0 98.06      
05:00 12.4 8.9 79   27 24 15.0 98.18      
06:00 9.3 2.9 64   33 24 15.0 98.35     Rain
07:00 8.1 1.1 61   33 15 24.1 98.50     Cloudy
08:00 7.8 1.0 62   31 19 24.1 98.63     Cloudy
09:00 8.2 0.7 59   30 17 24.1 98.69     Mostly Cloudy
10:00 9.6 -0.6 49   32 17 24.1 98.75     Mostly Cloudy
11:00 10.6 -0.1 47   29 22 24.1 98.76     Mostly Cloudy
12:00 11.8 1.5 49   29 22 24.1 98.73     Mostly Cloudy
13:00 11.1 -1.3 42   29 33 24.1 98.75     Mostly Cloudy
14:00 13.2 -4.4 29   30 35 24.1 98.77     Mainly Clear
15:00 12.7 -4.3 30   29 24 24.1 98.86     Mainly Clear
16:00 10.4 -7.2 28   32 26 24.1 98.97     Mainly Clear
17:00 9.5 -9.0 26   31 30 15.0 99.11      
18:00 8.0 -11.7 23   32 20 15.0 99.24      
19:00 5.9 -10.9 29   31 11 15.0 99.35      
20:00 4.8 -11.9 29   32 11 15.0 99.44      
21:00 3.9 -11.7 31   33 11 15.0 99.55      
22:00 2.0 -11.4 36   32 7 15.0 99.60      
23:00 0.5 -10.6 43   29 4 15.0 99.64      

Notes on Data Quality.

Legend

  • E = Estimated
  • M = Missing
  • NA = Not Available*
  • [empty] = Indicates an unobserved value
Date modified: